#timestamp,LO_Frequency,Hit,StdDev 
1589126415.8,286047000.4,N
1589126435.7,286047000.6,N
1589126455.5,286047000.3,N
1589126475.4,286047000.8,N
1589126495.2,286047001.1,N
1589126515.0,286047001.0,N
1589126515.9,286047001.0,N
1589126535.8,286047000.6,N
1589126555.6,286047000.9,N
1589126575.5,286046998.4,N
1589126595.3,286046999.3,N
1589126615.1,286046998.7,N
1589126635.9,286046996.5,Y
1589126655.7,286046997.8,P
1589126675.6,286046997.9,N
1589126695.4,286046997.5,N
1589126715.2,286046997.3,N
1589126735.1,286046997.6,N
1589126736.0,286046997.6,N
1589126755.8,286046997.3,Y
1589126775.6,286046999.8,P
1589126795.5,286047000.5,N
1589126815.3,286047001.2,N
1589126835.2,286047000.4,N
1589126855.9,286046998.8,N
1589126875.7,286047001.2,N
1589126895.6,286046998.5,N
1589126915.4,286046999.0,N
1589126935.2,286046999.1,N
1589126955.1,286046998.7,N
1589126956.0,286046998.7,N
1589126975.8,286047000.1,N
1589126995.7,286047000.6,N
1589127015.5,286047001.2,N
1589127035.3,286047000.4,N
1589127055.2,286047001.1,N
1589127075.0,286046998.3,N
1589127075.9,286046998.3,N
1589127095.8,286047000.9,N
1589127115.6,286046998.4,N
1589127135.4,286047001.2,N
1589127155.3,286047001.2,N
1589127175.1,286047000.6,N
1589127195.9,286046999.1,N
1589127215.7,286047001.0,N
1589127235.5,286046999.7,N
1589127255.4,286047002.3,N
1589127275.2,286047002.7,N
1589127295.0,286047001.2,N
1589127295.9,286047001.2,N
1589127315.8,286047001.0,N
1589127335.6,286046998.7,N
1589127355.5,286047000.3,N
1589127375.3,286047002.7,N
1589127395.1,286047000.5,N
1589127415.9,286046999.8,N
1589127435.7,286047001.1,N
1589127455.6,286047000.5,N
1589127475.4,286047000.0,N
1589127495.2,286047000.9,N
1589127515.1,286047002.7,N
1589127516.0,286047002.7,N
1589127535.8,286047000.1,N
1589127555.7,286047002.7,N
1589127575.5,286046999.7,N
1589127595.3,286047000.4,N
1589127615.2,286047000.0,N
1589127635.0,286047002.1,N
1589127635.9,286047002.1,N
1589127655.8,286047002.5,N
1589127675.6,286047007.1,Y
1589127695.5,286047006.2,P
1589127715.3,286047009.4,P
1589127735.1,286047011.9,P
1589127755.9,286047012.9,Y
1589127775.7,286047006.9,P
1589127795.5,286047006.6,P
1589127815.4,286047005.0,P
1589127835.2,286047005.1,Y
1589127855.1,286046998.4,P
1589127856.0,286046998.4,N
1589127875.8,286046997.2,N
1589127895.6,286046998.7,N
1589127915.5,286047000.8,N
1589127935.3,286047001.2,N
1589127955.2,286047001.2,N
1589127975.9,286047000.3,N
1589127995.7,286046996.6,N
1589128015.6,286046993.5,N
1589128035.4,286046995.6,N
1589128055.3,286046996.4,N
1589128075.1,286046993.3,N
1589128076.0,286046993.3,N
1589128095.8,286046992.8,N
1589128115.7,286046987.3,Y
1589128135.5,286046989.1,P
1589128155.3,286046985.3,P
1589128175.2,286046984.3,P
1589128195.0,286046982.4,Y
1589128195.9,286046982.4,P
1589128215.8,286046993.8,N
1589128235.6,286046993.4,N
1589128255.4,286046994.0,N
1589128275.3,286046989.2,N
1589128295.1,286046988.2,N
1589128315.9,286046986.0,Y
1589128335.7,286046993.6,P
1589128355.5,286046991.7,P
1589128375.4,286046993.1,P
1589128395.2,286046990.1,Y
1589128415.1,286046998.6,P
1589128416.0,286046998.6,N
1589128435.8,286047001.1,N
1589128455.6,286046998.7,N
1589128475.5,286046998.4,N
1589128495.3,286046999.2,N
1589128515.2,286046998.7,N
1589128535.9,286046996.5,N
1589128555.7,286047000.6,N
1589128575.6,286047000.9,N
1589128595.4,286047000.2,N
1589128615.2,286046998.5,N
1589128635.1,286046998.1,N
1589128636.0,286046998.1,N
1589128655.8,286046998.7,N
1589128675.7,286046999.5,N
1589128695.5,286046999.2,N
1589128715.3,286046997.5,N
1589128735.2,286046994.0,Y
1589128755.0,286046996.3,P
1589128755.9,286046996.3,P
1589128775.8,286046991.7,P
1589128795.6,286046990.2,Y
1589128815.4,286046996.0,P
1589128835.3,286046995.9,P
1589128855.1,286046991.9,P
1589128875.9,286046991.9,Y
1589128895.7,286046998.9,P
1589128915.5,286046998.1,N
1589128935.4,286046999.2,N
1589128955.2,286046999.6,N
1589128975.0,286046999.1,N
1589128976.0,286046999.1,N
1589128995.8,286046999.5,N
1589129015.6,286046999.3,N
1589129035.5,286046998.1,N
1589129055.3,286047001.1,N
1589129075.1,286047001.0,N
1589129095.9,286047002.2,N
1589129115.7,286047000.1,N
1589129135.6,286046998.6,N
1589129155.4,286046996.1,N
1589129175.2,286046995.5,N
1589129195.1,286046995.1,N
1589129196.0,286046995.1,N
1589129215.8,286046995.9,N
1589129235.7,286046994.5,N
1589129255.5,286046993.7,N
1589129275.3,286046994.7,N
1589129295.2,286046991.7,Y
1589129315.0,286046996.1,P
1589129315.9,286046996.1,P
1589129335.8,286046995.1,P
1589129355.6,286046997.6,N
1589129375.4,286046996.7,Y
1589129395.3,286047001.3,P
1589129415.1,286047004.0,N
1589129435.8,286047003.0,N
1589129455.7,286047005.8,N
1589129475.5,286047003.7,N
1589129495.4,286047001.9,N
1589129515.2,286047001.4,N
1589129535.0,286047002.5,N
1589129535.9,286047002.5,N
1589129555.8,286047001.4,N
1589129575.6,286047001.6,N
1589129595.5,286047000.3,N
1589129615.3,286047000.7,N
1589129635.1,286046998.4,N
1589129655.9,286046999.6,N
1589129675.7,286046996.8,N
1589129695.6,286046996.5,N
1589129715.4,286046998.0,N
1589129735.2,286046995.8,N
1589129755.1,286046995.3,N
1589129756.0,286046995.3,N
1589129775.8,286046998.0,N
1589129795.6,286046994.9,N
1589129815.5,286046995.0,N
1589129835.3,286046996.2,N
1589129855.2,286046995.2,N
1589129875.9,286046997.5,N
1589129895.7,286046995.7,N
1589129915.6,286046995.9,N
1589129935.4,286046993.7,N
1589129955.3,286046994.7,N
1589129975.1,286046992.6,N
1589129976.0,286046992.6,N
1589129995.8,286046994.6,N
